| time (UTC) | temp F | wind direction | speed knots | gust knots | rain 1hr in | rain 24hr in | rain mn in | humidity % | barometer mb |
| 20260906140326 | 53 | 149 | 0.0 | 0.0 | 0.00 | 0.00 | 0.00 | 77 | 1016.1 |
| 20260906134853 | 52 | 149 | 0.0 | 0.0 | 0.00 | 0.00 | 0.00 | 77 | 1016.1 |
| 20260906133408 | 51 | 149 | 0.0 | 0.0 | 0.00 | 0.00 | 0.00 | 77 | 1016.2 |
| 20260906131828 | 50 | 137 | 0.0 | 1.7 | 0.00 | 0.00 | 0.00 | 78 | 1016.3 |
| 20260906130338 | 50 | 164 | 0.0 | 0.0 | 0.00 | 0.00 | 0.00 | 80 | 1016.4 |
| 20260906124851 | 49 | 209 | 0.0 | 0.0 | 0.00 | 0.00 | 0.00 | 81 | 1016.2 |
| 20260906123339 | 49 | 242 | 0.0 | 0.0 | 0.00 | 0.00 | 0.00 | 81 | 1016.0 |
| 20260906121825 | 49 | 242 | 0.0 | 0.0 | 0.00 | 0.00 | 0.00 | 81 | 1016.0 |
| 20260906120325 | 49 | 279 | 0.0 | 0.0 | 0.00 | 0.00 | 0.00 | 80 | 1015.9 |
| 20260906114908 | 49 | 279 | 0.0 | 0.0 | 0.00 | 0.00 | 0.00 | 81 | 1015.6 |
| 20260906113355 | 50 | 279 | 0.0 | 0.0 | 0.00 | 0.00 | 0.00 | 79 | 1015.5 |
| 20260906111851 | 50 | 279 | 0.0 | 0.0 | 0.00 | 0.00 | 0.00 | 79 | 1015.3 |
| 20260906110341 | 51 | 279 | 0.0 | 0.0 | 0.00 | 0.00 | 0.00 | 78 | 1015.4 |
| 20260906104826 | 51 | 279 | 0.0 | 0.0 | 0.00 | 0.00 | 0.00 | 79 | 1015.3 |
| 20260906103353 | 51 | 279 | 0.0 | 0.0 | 0.00 | 0.00 | 0.00 | 77 | 1015.3 |
| 20260906101833 | 52 | 279 | 0.0 | 0.0 | 0.00 | 0.00 | 0.00 | 76 | 1015.3 |
| 20260906100325 | 52 | 279 | 0.0 | 0.0 | 0.00 | 0.00 | 0.00 | 75 | 1015.3 |
| 20260906094835 | 53 | 279 | 0.0 | 0.0 | 0.00 | 0.00 | 0.00 | 75 | 1015.3 |
| 20260906093338 | 53 | 279 | 0.0 | 0.0 | 0.00 | 0.00 | 0.00 | 74 | 1015.3 |
| 20260906091840 | 53 | 259 | 0.0 | 0.0 | 0.00 | 0.00 | 0.00 | 74 | 1015.3 |
| 20260906090342 | 54 | 259 | 0.0 | 0.0 | 0.00 | 0.00 | 0.00 | 73 | 1015.3 |
| 20260906084847 | 54 | 260 | 0.0 | 0.0 | 0.00 | 0.00 | 0.00 | 73 | 1015.4 |
| 20260906083339 | 54 | 242 | 0.0 | 0.0 | 0.00 | 0.00 | 0.00 | 72 | 1015.5 |
| 20260906081902 | 55 | 242 | 0.0 | 0.0 | 0.00 | 0.00 | 0.00 | 71 | 1015.7 |
| 20260906080349 | 55 | 242 | 0.0 | 0.0 | 0.00 | 0.00 | 0.00 | 70 | 1015.9 |
| 20260906074849 | 55 | 242 | 0.0 | 0.0 | 0.00 | 0.00 | 0.00 | 68 | 1015.9 |
| 20260906073401 | 56 | 242 | 0.0 | 0.0 | 0.00 | 0.00 | 0.00 | 67 | 1015.9 |
| 20260906071826 | 56 | 242 | 0.0 | 0.0 | 0.00 | 0.00 | 0.00 | 67 | 1016.0 |
| 20260906070400 | 57 | 242 | 0.0 | 0.0 | 0.00 | 0.00 | 0.00 | 66 | 1016.1 |
| 20260906064835 | 57 | 242 | 0.0 | 0.0 | 0.00 | 0.00 | 0.00 | 66 | 1016.2 |
| 20260906063338 | 57 | 244 | 0.0 | 0.0 | 0.00 | 0.00 | 0.00 | 66 | 1016.4 |
| 20260906061837 | 58 | 250 | 0.0 | 0.0 | 0.00 | 0.00 | 0.00 | 67 | 1016.5 |
| 20260906060350 | 58 | 251 | 0.0 | 0.0 | 0.00 | 0.00 | 0.00 | 64 | 1016.5 |
| 20260906054905 | 59 | 253 | 0.0 | 0.0 | 0.00 | 0.00 | 0.00 | 62 | 1016.5 |
| 20260906053328 | 59 | 193 | 0.0 | 0.0 | 0.00 | 0.00 | 0.00 | 61 | 1016.6 |
| 20260906051840 | 60 | 218 | 0.0 | 0.0 | 0.00 | 0.00 | 0.00 | 60 | 1016.6 |
| 20260906050332 | 61 | 236 | 0.0 | 0.0 | 0.00 | 0.00 | 0.00 | 59 | 1016.5 |
| 20260906044842 | 61 | 234 | 0.0 | 0.0 | 0.00 | 0.00 | 0.00 | 60 | 1016.7 |
| 20260906043335 | 62 | 238 | 0.0 | 0.0 | 0.00 | 0.00 | 0.00 | 61 | 1016.8 |
| 20260906041842 | 63 | 238 | 0.0 | 0.0 | 0.00 | 0.00 | 0.00 | 59 | 1016.7 |
| 20260906040346 | 63 | 242 | 0.0 | 0.0 | 0.00 | 0.00 | 0.00 | 59 | 1016.5 |
| 20260906034835 | 63 | 221 | 0.0 | 0.0 | 0.00 | 0.00 | 0.00 | 57 | 1016.5 |
| 20260906033335 | 64 | 215 | 0.0 | 0.0 | 0.00 | 0.00 | 0.00 | 55 | 1016.5 |
| 20260906031859 | 65 | 216 | 0.0 | 0.0 | 0.00 | 0.00 | 0.00 | 55 | 1016.2 |
| 20260906030351 | 66 | 273 | 0.0 | 0.0 | 0.00 | 0.00 | 0.00 | 53 | 1016.3 |
| 20260906024834 | 68 | 295 | 0.0 | 0.9 | 0.00 | 0.00 | 0.00 | 50 | 1015.9 |
| 20260906023353 | 70 | 242 | 0.0 | 0.0 | 0.00 | 0.00 | 0.00 | 46 | 1015.8 |
| 20260906021858 | 71 | 269 | 0.0 | 0.0 | 0.00 | 0.00 | 0.00 | 46 | 1015.6 |
| 20260906020345 | 72 | 287 | 0.0 | 0.0 | 0.00 | 0.00 | 0.00 | 44 | 1015.5 |
| 20260906014841 | 73 | 287 | 0.0 | 0.0 | 0.00 | 0.00 | 0.00 | 43 | 1015.4 |
| 20260906013349 | 74 | 287 | 0.0 | 0.0 | 0.00 | 0.00 | 0.00 | 42 | 1015.3 |
| 20260906011839 | 75 | 287 | 0.0 | 0.0 | 0.00 | 0.00 | 0.00 | 42 | 1015.3 |
| 20260906010337 | 76 | 290 | 0.0 | 0.0 | 0.00 | 0.00 | 0.00 | 40 | 1015.3 |
| 20260906004910 | 78 | 290 | 0.0 | 0.0 | 0.00 | 0.00 | 0.00 | 39 | 1015.3 |
| 20260906003345 | 79 | 290 | 0.0 | 0.0 | 0.00 | 0.00 | 0.00 | 36 | 1015.3 |
| 20260906001900 | 80 | 286 | 0.0 | 0.0 | 0.00 | 0.00 | 0.00 | 35 | 1015.3 |
| 20260906000333 | 80 | 325 | 0.0 | 0.0 | 0.00 | 0.00 | 0.00 | 35 | 1015.3 |
| 20260905234829 | 80 | 338 | 0.0 | 1.7 | 0.00 | 0.00 | 0.00 | 35 | 1015.3 |
| 20260905233337 | 80 | 275 | 0.0 | 0.9 | 0.00 | 0.00 | 0.00 | 35 | 1015.4 |
| 20260905231846 | 83 | 309 | 0.0 | 1.7 | 0.00 | 0.00 | 0.00 | 33 | 1015.3 |
| 20260905230330 | 83 | 153 | 0.0 | 1.7 | 0.00 | 0.00 | 0.00 | 32 | 1015.4 |
| 20260905224823 | 84 | 26 | 0.0 | 0.9 | 0.00 | 0.00 | 0.00 | 33 | 1015.4 |
| 20260905223347 | 84 | 198 | 0.0 | 1.7 | 0.00 | 0.00 | 0.00 | 32 | 1015.6 |
| 20260905221845 | 83 | 117 | 0.0 | 1.7 | 0.00 | 0.00 | 0.00 | 33 | 1015.8 |
| 20260905220338 | 82 | 252 | 0.0 | 0.0 | 0.00 | 0.00 | 0.00 | 33 | 1015.9 |
| 20260905214828 | 81 | 185 | 0.0 | 1.7 | 0.00 | 0.00 | 0.00 | 34 | 1015.9 |
| 20260905213341 | 82 | 128 | 0.0 | 1.7 | 0.00 | 0.00 | 0.00 | 34 | 1015.9 |
| 20260905211833 | 80 | 184 | 0.0 | 1.7 | 0.00 | 0.00 | 0.00 | 34 | 1015.9 |
| 20260905210352 | 79 | 229 | 0.0 | 1.7 | 0.00 | 0.00 | 0.00 | 35 | 1016.0 |
| 20260905204915 | 80 | 312 | 0.0 | 1.7 | 0.00 | 0.00 | 0.00 | 36 | 1016.0 |
| 20260905203356 | 79 | 250 | 0.0 | 1.7 | 0.00 | 0.00 | 0.00 | 35 | 1016.1 |
| 20260905201834 | 78 | 9 | 0.0 | 1.7 | 0.00 | 0.00 | 0.00 | 37 | 1016.2 |
| 20260905200346 | 78 | 27 | 0.0 | 4.3 | 0.00 | 0.00 | 0.00 | 38 | 1016.1 |
| 20260905194859 | 77 | 5 | 0.0 | 6.1 | 0.00 | 0.00 | 0.00 | 36 | 1016.4 |
| 20260905193341 | 77 | 327 | 0.0 | 2.6 | 0.00 | 0.00 | 0.00 | 35 | 1016.5 |
| 20260905191905 | 76 | 325 | 0.9 | 3.5 | 0.00 | 0.00 | 0.00 | 37 | 1016.5 |
| 20260905190353 | 75 | 306 | 0.0 | 4.3 | 0.00 | 0.00 | 0.00 | 39 | 1016.5 |
| 20260905184838 | 75 | 190 | 0.9 | 5.2 | 0.00 | 0.00 | 0.00 | 38 | 1016.7 |
| 20260905183347 | 75 | 298 | 1.7 | 5.2 | 0.00 | 0.00 | 0.00 | 38 | 1016.9 |
| 20260905181831 | 74 | 344 | 0.0 | 2.6 | 0.00 | 0.00 | 0.00 | 38 | 1017.0 |
| 20260905180358 | 73 | 296 | 0.9 | 3.5 | 0.00 | 0.00 | 0.00 | 39 | 1016.9 |
| 20260905174837 | 72 | 289 | 0.9 | 6.1 | 0.00 | 0.00 | 0.00 | 40 | 1017.1 |
| 20260905173332 | 72 | 246 | 0.9 | 3.5 | 0.00 | 0.00 | 0.00 | 40 | 1017.1 |
| 20260905171834 | 72 | 106 | 0.9 | 3.5 | 0.00 | 0.00 | 0.00 | 41 | 1017.1 |
| 20260905170339 | 72 | 24 | 1.7 | 4.3 | 0.00 | 0.00 | 0.00 | 40 | 1017.1 |
| 20260905164839 | 72 | 335 | 2.6 | 6.1 | 0.00 | 0.00 | 0.00 | 40 | 1017.0 |
| 20260905163335 | 71 | 11 | 0.9 | 2.6 | 0.00 | 0.00 | 0.00 | 43 | 1016.8 |
| 20260905161836 | 69 | 291 | 0.9 | 3.5 | 0.00 | 0.00 | 0.00 | 43 | 1016.6 |
| 20260905160404 | 68 | 273 | 0.0 | 5.2 | 0.00 | 0.00 | 0.00 | 44 | 1016.5 |
| 20260905154845 | 67 | 15 | 0.0 | 3.5 | 0.00 | 0.00 | 0.00 | 44 | 1016.5 |
| 20260905153335 | 66 | 316 | 0.9 | 2.6 | 0.00 | 0.00 | 0.00 | 45 | 1016.6 |
| 20260905151837 | 65 | 306 | 0.9 | 2.6 | 0.00 | 0.00 | 0.00 | 45 | 1016.6 |
| 20260905150343 | 63 | 17 | 0.0 | 1.7 | 0.00 | 0.00 | 0.00 | 47 | 1016.5 |
| 20260905144902 | 61 | 234 | 0.0 | 1.7 | 0.00 | 0.00 | 0.00 | 51 | 1016.6 |
| 20260905143335 | 59 | 307 | 0.0 | 1.7 | 0.00 | 0.00 | 0.00 | 52 | 1016.8 |
| 20260905141835 | 58 | 98 | 0.0 | 0.9 | 0.00 | 0.00 | 0.00 | 53 | 1016.9 |